Flag for West Bank Weather past 2 weeks in Nablus, West Bank

Now
68 °F

Passing clouds.


Feels Like: 68 °F
Forecast: 56 / 83 °F
Wind: 7 mph from South

Location: Ben Gurion International Airport

Current Time: May 23, 2015 at 5:51:52 AM

Latest Report: May 23, 2015 at 5:20 AM


Visibility: N/A

Pressure: 29.92 "Hg

Humidity: 83%

Dew point: 63 °F

Location of NablusLocation

Historic Weather in Nablus — Graph

°F

Nablus temperature yesterday

Maximum temperature yesterday: 77 °F (at 12:50 PM)
Minimum temperature yesterday: 64 °F (at 5:20 AM)
Average temperature yesterday: 71 °F

Past Weeks' High & Low Weather Summary

 TemperatureHumidityPressure
High106 °F (May 18, 4:50 PM)88% (May 8, 6:20 AM)30.18 "Hg (May 8, 6:20 AM)
Low59 °F (May 16, 4:50 AM)6% (May 18, 12:20 PM)29.62 "Hg (May 9, 5:50 PM)
Average74 °F57%29.89 "Hg
* Reported May 8 4:20 AM — May 23 4:50 AM, Nablus, Weather by CustomWeather, © 2015

Note: Actual official high and low records may vary slightly from our data, if they occured in-between our weather recording intervals... More about our weather records

Advertising

Nablus weather history for previous 24 hours

 ConditionsComfort  
Time TempWeatherWind HumidityBarometerVisibility
4:50 AM
Sat, May 23
68 °FPassing clouds.6 mph83%29.92 "HgN/A
4:20 AM68 °FPassing clouds.7 mph83%29.92 "HgN/A
3:50 AM68 °FPassing clouds.7 mph83%29.92 "HgN/A
3:20 AM68 °FPassing clouds.7 mph83%29.92 "HgN/A
2:50 AM68 °FPassing clouds.7 mph83%29.92 "HgN/A
2:20 AM68 °FPassing clouds.7 mph78%29.92 "HgN/A
1:50 AM68 °FPassing clouds.5 mph78%29.92 "HgN/A
1:20 AM68 °FPassing clouds.7 mph83%29.92 "HgN/A
12:50 AM70 °FPassing clouds.5 mph78%29.95 "HgN/A
12:20 AM70 °FPassing clouds.3 mph78%29.95 "HgN/A
11:50 PM
Fri, May 22
70 °FPassing clouds.3 mph78%29.95 "HgN/A
11:20 PM70 °FPassing clouds.5 mph78%29.95 "HgN/A
10:50 PM70 °FPassing clouds.2 mph78%29.95 "HgN/A
10:20 PM70 °FPassing clouds.2 mph78%29.95 "HgN/A
9:50 PM70 °FPassing clouds.3 mph78%29.95 "HgN/A
9:20 PM70 °FClear.5 mph78%29.95 "Hg10 mi
8:50 PM70 °FClear.7 mph78%29.92 "Hg10 mi
8:20 PM72 °FSunny.7 mph69%29.92 "Hg10 mi
7:50 PM72 °FSunny.9 mph69%29.92 "Hg10 mi
7:20 PM72 °FSunny.8 mph69%29.92 "Hg10 mi
6:50 PM72 °FSunny.7 mph69%29.92 "Hg10 mi
6:20 PM73 °FPassing clouds.8 mph65%29.92 "HgN/A
5:50 PM73 °FPassing clouds.9 mph65%29.92 "HgN/A
5:20 PM75 °FPassing clouds.10 mph61%29.92 "HgN/A
4:50 PM75 °FScattered clouds.12 mph61%29.92 "HgN/A
4:20 PM75 °FScattered clouds.14 mph61%29.92 "HgN/A
3:50 PM75 °FPassing clouds.12 mph61%29.92 "HgN/A
3:20 PM75 °FPassing clouds.12 mph57%29.92 "HgN/A
2:50 PM75 °FPassing clouds.13 mph57%29.92 "HgN/A
2:20 PM75 °FScattered clouds.14 mph61%29.92 "HgN/A
1:50 PM77 °FPassing clouds.15 mph57%29.95 "HgN/A
1:20 PM77 °FPassing clouds.12 mph54%29.95 "HgN/A
12:50 PM77 °FPassing clouds.8 mph51%29.95 "HgN/A
12:20 PM75 °FPassing clouds.9 mph57%29.95 "HgN/A
11:50 AM75 °FScattered clouds.12 mph57%29.95 "HgN/A
11:20 AM75 °FScattered clouds.13 mph57%29.95 "HgN/A
10:50 AM75 °FScattered clouds.13 mph57%29.95 "HgN/A
10:20 AM75 °FScattered clouds.12 mph57%29.95 "HgN/A
9:50 AM73 °FScattered clouds.8 mph61%29.95 "HgN/A
9:20 AM72 °FScattered clouds.7 mph69%29.95 "HgN/A
8:50 AM72 °FScattered clouds.6 mph69%29.95 "HgN/A
8:20 AM72 °FScattered clouds.5 mph69%29.95 "HgN/A
7:50 AM70 °FScattered clouds.6 mph73%29.95 "HgN/A
7:20 AM68 °FSunny.7 mph78%29.95 "Hg10 mi
6:50 AM66 °FPassing clouds.7 mph78%29.92 "HgN/A
6:20 AM64 °FPassing clouds.6 mph83%29.92 "HgN/A
5:50 AM64 °FPassing clouds.5 mph83%29.92 "HgN/A
5:20 AM64 °FPassing clouds.7 mph83%29.92 "HgN/A
Weather by CustomWeather, © 2015

See weather overviewHow to use our weather pages